Regional Weather Roundup
Issued by NWS

Home | Current Version | Previous Version | Text Only | Print | Product List | Glossary Off
Versions: 1 2 3 4 5 6 7 8 9 10 11 12 13 14 15 16 17 18 19 20 21 22 23 24 25 26 27 28 29 30 31 32 33 34 35 36 37 38 39 40 41 42 43 44 45 46 47 48 49 50

000
ASUS43 KLSX 200959
RWRMO

WEATHER SUMMARY FOR MISSOURI
NATIONAL WEATHER SERVICE SPRINGFIELD MO
500 AM CDT WED AUG 20 2014

NOTE: "FAIR" INDICATES FEW OR NO CLOUDS BELOW 12,000 FEET WITH NO
       SIGNIFICANT WEATHER AND/OR OBSTRUCTIONS TO VISIBILITY.
       CURRENT SKY AND/OR WEATHER CONDITIONS ARE NOT AVAILABLE FOR
       CHILLICOTHE AND FARMINGTON.

MOZ001>031-035>038-043-044-053-054-201100-
...NORTHERN AND WESTERN MISSOURI...

CITY           SKY/WX    TMP DP  RH WIND       PRES   REMARKS
KANSAS CTY INT MOCLDY    76  69  79 SW12      29.82F
KANSAS C DTWN  MOCLDY    82  69  64 SW13      29.81F
LEE`S SUMMIT   PTCLDY    77  70  79 SW9       29.84F
ST JOSEPH      MOCLDY    74  69  85 SW9       29.80R
KIRKSVILLE     MOCLDY    73  70  90 E7        29.86R

$$
MOZ066>068-077>081-088>096-101>105-201100-
...SOUTHWEST MISSOURI...

CITY           SKY/WX    TMP DP  RH WIND       PRES   REMARKS
SPRINGFIELD    CLEAR     73  70  90 S7        29.92S
JOPLIN         CLEAR     76  70  82 S8        29.90S

$$
MOZ032>034-039>042-045>050-055>058-069>072-201100-
...CENTRAL MISSOURI...

CITY           SKY/WX    TMP DP  RH WIND       PRES   REMARKS
COLUMBIA       PTCLDY    71  69  93 S6        29.87R
JEFFERSON CITY PTCLDY    70  69  97 SE6       29.86R
ROLLA          CLEAR     72  67  84 SW8       29.89S
SEDALIA        CLEAR     77  70  79 SW10      29.86S
OSAGE BEACH    CLEAR     72  66  83 CALM      29.88S

$$
MOZ051-052-059>065-201100-
...EAST CENTRAL MISSOURI...

CITY           SKY/WX    TMP DP  RH WIND       PRES   REMARKS
ST LOUIS INTL  PTCLDY    75  70  84 CALM      29.87R
SPIRIT OF STL  CLEAR     69  68  96 CALM      29.85R
ST CHARLES     PTCLDY    70  69  97 CALM      29.85S FOG

$$
MOZ072>076-082>087-097>100-106>115-201100-
...SOUTH CENTRAL AND SOUTHEAST MISSOURI...

CITY           SKY/WX    TMP DP  RH WIND       PRES   REMARKS
CAPE GIRARDEAU CLEAR     69  67  93 NW3       29.87R FOG
FARMINGTON     CLEAR     72  66  83 CALM      29.92R
POPLAR BLUFF   CLEAR     73  68  84 CALM      29.87R
WEST PLAINS    CLEAR     73  69  87 W5        29.94S

$$


USA.gov is the U.S. government's official web portal to all federal, state and local government web resources and services.